Terminal Aerodrome Forecast
Issued by NWS

Home | Current Version | Previous Version | Text Only | Print | Product List | Glossary On
Versions: 1 2 3 4 5 6 7 8 9 10 11 12 13 14 15 16 17
000
FTUS42 KTBW 270900 AAA
TAFLAL
TAF AMD
KLAL 270928Z 2709/2806 VRB05KT P6SM SCT060
      TEMPO 2710/2713 BKN060
     FM271400 05008KT P6SM SCT045 SCT120
     FM280000 05004KT P6SM FEW050
      AMD NOT SKED 2709/2712=

USA.gov is the U.S. government's official web portal to all federal, state and local government web resources and services.